This is the latest recevied weather packets stored in our database for station/object EFTP. If no packets are shown the sender has not sent any weather packets the latest 10 day(s).
| Time | Temp. | Humidity | Pressure | Rain* | Wind** | Luminosity | Snow |
|---|---|---|---|---|---|---|---|
| 1777214796 | 5° C | 35% | 1008.7 hPa | - | - | - | - |
| 1777213596 | 5.56° C | 35% | 1008.6 hPa | - | - | - | - |
| 1777212395 | 6.67° C | 32% | 1008 hPa | - | - | - | - |
| 1777211195 | 6.11° C | 31% | 1007.9 hPa | - | - | - | - |
| 1777209995 | 5.56° C | 31% | 1007.8 hPa | - | - | - | - |
| 1777208795 | 5.56° C | 31% | 1007.5 hPa | - | - | - | - |
| 1777207595 | 5.56° C | 32% | 1007.4 hPa | - | - | - | - |
| 1777206395 | 5.56° C | 30% | 1007.2 hPa | - | - | - | - |
| 1777205195 | 6.11° C | 31% | 1007.2 hPa | - | - | - | - |
| 1777203995 | 5.56° C | 29% | 1007.1 hPa | - | - | - | - |
| 1777202795 | 5° C | 30% | 1007 hPa | - | - | - | - |
| 1777201594 | 4.44° C | 32% | 1006.7 hPa | - | - | - | - |
| 1777200395 | 4.44° C | 32% | 1006.5 hPa | - | - | - | - |
| 1777199194 | 5° C | 32% | 1006.4 hPa | - | - | - | - |
| 1777197994 | 4.44° C | 35% | 1006.1 hPa | - | - | - | - |
| 1777196794 | 3.89° C | 38% | 1006.1 hPa | - | - | - | - |
| 1777195595 | 4.44° C | 40% | 1005.8 hPa | - | - | - | - |
| 1777194394 | 3.33° C | 42% | 1005.5 hPa | - | - | - | - |
| 1777193194 | 3.33° C | 42% | 1005.4 hPa | - | - | - | - |
| 1777191994 | 2.78° C | 44% | 1005.3 hPa | - | - | - | - |
| 1777190794 | 3.33° C | 44% | 1005.1 hPa | - | - | - | - |
| 1777189594 | 2.78° C | 47% | 1004.9 hPa | - | - | - | - |
| 1777188394 | 2.22° C | 49% | 1004.7 hPa | - | - | - | - |
| 1777187194 | 2.22° C | 48% | 1004.4 hPa | - | - | - | - |
| 1777185994 | 2.78° C | 53% | 1004.2 hPa | - | - | - | - |
* Rain since midnight (hover to see other rain measurements)
** Current wind speed in m/s (hover to see current wind gust speed)